Flight Track Log - Related Links

Times and Time Zones

All times are in EST time to prevent confusion due to time zone crossing. See the SWA4922 flight status page for this flight to view local times or setup timezone preferences in your user account.

Time Position Orientation Groundspeed Altitude Reporting Facility
EST Latitude Longitude Course Direction KTS MPH feet Rate Location/Type
Wed 04:21:30 PM 33.4333 -112.0333 270° West 166 191 2,000  Level Phoenix TRACON
Wed 04:22:37 PM 33.4333 -112.1000 270° West 215 247 4,100 2,059 Climbing Phoenix TRACON
Wed 04:23:12 PM 33.4344 -112.1425 272° West 207 238 5,500 2,598 Climbing Albuquerque Center
Wed 04:24:14 PM 33.4703 -112.1872 314° West 229 264 8,300 2,634 Climbing Albuquerque Center
Wed 04:25:15 PM 33.5394 -112.1700 12° North 253 291 10,900 2,439 Climbing Albuquerque Center
Wed 04:26:17 PM 33.5969 -112.1033 44° Northeast 326 375 13,300 2,419 Climbing Albuquerque Center
Wed 04:27:19 PM 33.6092 -111.9839 83° East 363 418 15,900 2,419 Climbing Albuquerque Center
Wed 04:28:21 PM 33.6239 -111.8528 82° East 395 455 18,300 2,758 Climbing Albuquerque Center
Wed 04:29:23 PM 33.6428 -111.6881 82° East 417 480 21,600 2,758 Climbing Albuquerque Center
Wed 04:30:25 PM 33.6583 -111.5478 82° East 427 491 24,000 2,195 Climbing Albuquerque Center
Wed 04:31:26 PM 33.6739 -111.4003 83° East 446 513 26,100 1,854 Climbing Albuquerque Center
Wed 04:32:28 PM 33.6950 -111.2503 80° East 459 528 27,800 1,742 Climbing Albuquerque Center
Wed 04:33:30 PM 33.7561 -111.0775 67° East 471 542 29,700 1,597 Climbing Albuquerque Center
Wed 04:34:32 PM 33.8086 -110.9278 67° East 485 558 31,100 1,790 Climbing Albuquerque Center
Wed 04:35:34 PM 33.8628 -110.7781 66° East 490 564 33,400 2,032 Climbing Albuquerque Center
Wed 04:36:36 PM 33.9142 -110.6331 67° East 481 554 35,300 1,645 Climbing Albuquerque Center
Wed 04:37:38 PM 33.9636 -110.4897 67° East 471 542 36,800 1,463 Climbing Albuquerque Center
Wed 04:38:39 PM 34.0206 -110.3239 67° East 465 535 38,300 1,073 Climbing Albuquerque Center
Wed 04:39:41 PM 34.0700 -110.1814 67° East 463 533 39,000 339 Climbing Albuquerque Center
Wed 04:40:43 PM 34.1217 -110.0328 67° East 457 526 39,000  Level Albuquerque Center
Wed 04:41:45 PM 34.1681 -109.8981 67° East 456 525 39,000  Level Albuquerque Center
Wed 04:42:47 PM 34.2222 -109.7444 67° East 450 518 39,000  Level Albuquerque Center
Wed 04:43:49 PM 34.2669 -109.6094 68° East 450 518 39,000  Level Albuquerque Center
Wed 04:44:51 PM 34.3200 -109.4556 67° East 447 514 39,000  Level Albuquerque Center
Wed 04:45:52 PM 34.3650 -109.3206 68° East 449 517 39,000  Level Albuquerque Center
Wed 04:46:54 PM 34.4175 -109.1617 68° East 454 522 39,000  Level Albuquerque Center
Wed 04:47:56 PM 34.4575 -109.0247 70° East 453 521 39,000  Level Albuquerque Center
Wed 04:48:58 PM 34.4961 -108.8861 71° East 453 521 39,000  Level Albuquerque Center
Wed 04:50:00 PM 34.5422 -108.7206 71° East 458 527 39,000  Level Albuquerque Center
Wed 04:51:02 PM 34.5800 -108.5792 72° East 461 531 39,000  Level Albuquerque Center
Wed 04:52:04 PM 34.6256 -108.4142 71° East 462 532 39,000  Level Albuquerque Center
Wed 04:53:06 PM 34.6642 -108.2692 72° East 467 537 39,000  Level Albuquerque Center
Wed 04:54:08 PM 34.7097 -108.1017 72° East 469 540 39,000  Level Albuquerque Center
Wed 04:55:10 PM 34.7481 -107.9581 72° East 468 539 39,000  Level Albuquerque Center
Wed 04:56:12 PM 34.7917 -107.7936 72° East 462 532 39,000  Level Albuquerque Center
Wed 04:57:14 PM 34.8286 -107.6531 72° East 459 528 39,000  Level Albuquerque Center
Wed 04:58:16 PM 34.8711 -107.4922 72° East 459 528 39,000  Level Albuquerque Center
Wed 04:59:18 PM 34.9111 -107.3328 73° East 458 527 39,000  Level Albuquerque Center
Wed 05:00:20 PM 34.9497 -107.1847 72° East 459 528 39,000  Level Albuquerque Center
Wed 05:01:22 PM 34.9903 -107.0244 73° East 459 528 39,000  Level Albuquerque Center
Wed 05:02:24 PM 35.0283 -106.8764 73° East 458 527 39,000  Level Albuquerque Center
Wed 05:03:26 PM 35.0703 -106.7447 69° East 455 524 39,000  Level Albuquerque Center
Wed 05:04:27 PM 35.1328 -106.5822 65° Northeast 451 519 39,000  Level Albuquerque Center
Wed 05:05:29 PM 35.1844 -106.4383 66° East 452 520 39,000  Level Albuquerque Center
Wed 05:06:31 PM 35.2361 -106.2989 66° East 453 521 39,000  Level Albuquerque Center
Wed 05:07:33 PM 35.2869 -106.1608 66° East 450 518 39,000  Level Albuquerque Center
Wed 05:08:35 PM 35.3372 -106.0217 66° East 451 519 39,000  Level Albuquerque Center
Wed 05:09:37 PM 35.3942 -105.8675 66° East 446 513 39,000  Level Albuquerque Center
Wed 05:10:39 PM 35.4464 -105.7219 66° East 443 510 39,000  Level Albuquerque Center
Wed 05:11:41 PM 35.4964 -105.5850 66° East 444 511 39,000  Level Albuquerque Center
Wed 05:12:43 PM 35.5453 -105.4489 66° East 444 511 39,000  Level Albuquerque Center
Wed 05:13:45 PM 35.5958 -105.3067 66° East 447 514 39,000  Level Albuquerque Center
Wed 05:14:47 PM 35.6464 -105.1664 66° East 446 513 39,000  Level Albuquerque Center
Wed 05:15:49 PM 35.7106 -105.0392 58° Northeast 433 498 39,000  Level Albuquerque Center
Wed 05:16:51 PM 35.7875 -104.8961 56° Northeast 426 490 39,000  Level Albuquerque Center
Wed 05:17:53 PM 35.8536 -104.7744 56° Northeast 422 486 39,000  Level Albuquerque Center
Wed 05:18:55 PM 35.9194 -104.6533 56° Northeast 421 484 39,000  Level Albuquerque Center
Wed 05:19:57 PM 35.9847 -104.5314 56° Northeast 420 483 39,000  Level Albuquerque Center
Wed 05:20:59 PM 36.0500 -104.4103 56° Northeast 419 482 39,000  Level Albuquerque Center
Wed 05:22:01 PM 36.1147 -104.2897 56° Northeast 417 480 39,000  Level Albuquerque Center
Wed 05:23:03 PM 36.1803 -104.1672 56° Northeast 420 483 39,000  Level Albuquerque Center
Wed 05:24:05 PM 36.2450 -104.0450 57° Northeast 420 483 39,000  Level Albuquerque Center
Wed 05:25:07 PM 36.3108 -103.9222 56° Northeast 422 486 39,000  Level Albuquerque Center
Wed 05:26:09 PM 36.3872 -103.7792 56° Northeast 422 486 39,000  Level Albuquerque Center
Wed 05:27:10 PM 36.4522 -103.6544 57° Northeast 425 489 39,000  Level Albuquerque Center
Wed 05:28:12 PM 36.5167 -103.5317 57° Northeast 422 486 39,000  Level Albuquerque Center
Wed 05:29:14 PM 36.5811 -103.4072 57° Northeast 423 487 39,000  Level Albuquerque Center
Wed 05:30:16 PM 36.6478 -103.2775 57° Northeast 422 486 39,000  Level Albuquerque Center
Wed 05:31:50 PM 36.7461 -103.0831 58° Northeast 423 487 39,000  Level Kansas City Center
Wed 05:32:20 PM 36.7792 -103.0219 56° Northeast 423 487 39,000  Level Albuquerque Center
Wed 05:33:21 PM 36.8403 -102.9044 57° Northeast 423 487 39,000  Level Albuquerque Center
Wed 05:34:23 PM 36.9125 -102.7636 57° Northeast 430 495 39,000  Level Albuquerque Center
Wed 05:35:25 PM 36.9742 -102.6450 57° Northeast 429 494 39,000  Level Albuquerque Center
Wed 05:36:27 PM 37.0419 -102.5086 58° Northeast 425 489 39,000  Level Albuquerque Center
Wed 05:37:29 PM 37.1011 -102.3911 58° Northeast 419 482 39,000  Level Albuquerque Center
Wed 05:38:02 PM 37.1325 -102.3022 66° East 431 496 39,000  Level Kansas City Center
Wed 05:39:04 PM 37.1803 -102.1681 66° East 439 505 39,000  Level Kansas City Center
Wed 05:40:06 PM 37.2375 -102.0136 65° Northeast 437 503 39,000  Level Kansas City Center
Wed 05:41:09 PM 37.2847 -101.8800 66° East 437 503 39,000  Level Kansas City Center
Wed 05:42:11 PM 37.3400 -101.7258 66° East 436 502 39,000  Level Kansas City Center
Wed 05:43:13 PM 37.3878 -101.5928 66° East 435 501 39,000  Level Kansas City Center
Wed 05:44:15 PM 37.4350 -101.4589 66° East 437 503 39,000  Level Kansas City Center
Wed 05:45:17 PM 37.4914 -101.3025 66° East 439 505 39,000  Level Kansas City Center
Wed 05:46:19 PM 37.5392 -101.1669 66° East 442 509 39,000  Level Kansas City Center
Wed 05:47:21 PM 37.5969 -101.0014 66° East 443 510 39,000  Level Kansas City Center
Wed 05:48:23 PM 37.6464 -100.8594 66° East 443 510 39,000  Level Kansas City Center
Wed 05:49:25 PM 37.6969 -100.7167 66° East 442 509 39,000  Level Kansas City Center
Wed 05:50:27 PM 37.7461 -100.5736 66° East 443 510 39,000  Level Kansas City Center
Wed 05:51:29 PM 37.7953 -100.4297 67° East 441 507 39,000  Level Kansas City Center
Wed 05:52:31 PM 37.8489 -100.2719 67° East 438 504 39,000  Level Kansas City Center
Wed 05:53:33 PM 37.8947 -100.1364 67° East 437 503 39,000  Level Kansas City Center
Wed 05:54:35 PM 37.9486 -99.9778 67° East 438 504 39,000  Level Kansas City Center
Wed 05:55:37 PM 37.9936 -99.8400 67° East 441 507 39,000  Level Kansas City Center
Wed 05:56:39 PM 38.0469 -99.6800 67° East 442 509 39,000  Level Kansas City Center
Wed 05:57:41 PM 38.0931 -99.5444 67° East 439 505 39,000  Level Kansas City Center
Wed 05:58:43 PM 38.1386 -99.3992 68° East 440 506 39,000  Level Kansas City Center
Wed 05:59:45 PM 38.1875 -99.2561 66° East 441 507 39,000  Level Kansas City Center
Wed 06:00:47 PM 38.2350 -99.1131 67° East 439 505 39,000  Level Kansas City Center
Wed 06:01:50 PM 38.2817 -98.9703 67° East 439 505 39,000  Level Kansas City Center
Wed 06:02:52 PM 38.3389 -98.7964 67° East 443 510 39,000  Level Kansas City Center
Wed 06:03:54 PM 38.3847 -98.6522 68° East 438 504 39,000  Level Kansas City Center
Wed 06:04:56 PM 38.4308 -98.5136 67° East 427 491 39,000  Level Kansas City Center
Wed 06:05:58 PM 38.4750 -98.3744 68° East 422 486 39,000  Level Kansas City Center
Wed 06:07:00 PM 38.5200 -98.2336 68° East 427 491 39,000 387 Level Kansas City Center
Wed 06:08:02 PM 38.5658 -98.0914 68° East 431 496 39,800 484 Climbing Kansas City Center
Wed 06:09:04 PM 38.6203 -97.9175 68° East 437 503 40,000 97 Climbing Kansas City Center
Wed 06:10:06 PM 38.6658 -97.7725 68° East 438 504 40,000  Level Kansas City Center
Wed 06:11:08 PM 38.7072 -97.6378 68° East 437 503 40,000  Level Kansas City Center
Wed 06:12:10 PM 38.7556 -97.4842 68° East 435 501 40,000  Level Kansas City Center
Wed 06:13:12 PM 38.7997 -97.3389 69° East 436 502 40,000  Level Kansas City Center
Wed 06:14:14 PM 38.8444 -97.1944 68° East 436 502 40,000  Level Kansas City Center
Wed 06:15:16 PM 38.8883 -97.0494 69° East 436 502 40,000  Level Kansas City Center
Wed 06:16:18 PM 38.9408 -96.8753 69° East 437 503 40,000  Level Kansas City Center
Wed 06:17:20 PM 38.9861 -96.7322 68° East 434 499 40,000  Level Kansas City Center
Wed 06:18:22 PM 39.0328 -96.5739 69° East 441 507 40,000  Level Kansas City Center
Wed 06:19:24 PM 39.0744 -96.4289 70° East 448 516 40,000  Level Kansas City Center
Wed 06:20:26 PM 39.1233 -96.2614 69° East 449 517 40,000  Level Kansas City Center
Wed 06:21:28 PM 39.1658 -96.1181 69° East 448 516 40,000  Level Kansas City Center
Wed 06:22:31 PM 39.2089 -95.9742 69° East 449 517 40,000  Level Kansas City Center
Wed 06:23:33 PM 39.2583 -95.8019 70° East 455 524 40,000  Level Kansas City Center
Wed 06:24:35 PM 39.3008 -95.6542 70° East 458 527 40,000  Level Kansas City Center
Wed 06:25:37 PM 39.3500 -95.4833 70° East 451 519 40,000  Level Kansas City Center
Wed 06:26:39 PM 39.3950 -95.3247 70° East 453 521 40,000  Level Kansas City Center
Wed 06:27:41 PM 39.4397 -95.1667 70° East 447 514 40,000  Level Kansas City Center
Wed 06:28:43 PM 39.4822 -95.0200 69° East 443 510 40,000 -145 Level Kansas City Center
Wed 06:29:45 PM 39.5222 -94.8753 70° East 444 511 39,700 -484 Descending Kansas City Center
Wed 06:30:47 PM 39.5689 -94.7081 70° East 442 509 39,000 -677 Descending Kansas City Center
Wed 06:31:49 PM 39.6094 -94.5636 70° East 445 512 38,300 -968 Descending Kansas City Center
Wed 06:32:51 PM 39.6558 -94.3944 70° East 445 512 37,000 -629 Descending Kansas City Center
Wed 06:33:53 PM 39.6956 -94.2522 70° East 437 503 37,000  Level Kansas City Center
Wed 06:34:55 PM 39.7392 -94.0858 71° East 436 502 37,000  Level Kansas City Center
Wed 06:35:57 PM 39.7789 -93.9436 70° East 438 504 37,000  Level Kansas City Center
Wed 06:36:59 PM 39.8208 -93.7833 71° East 439 505 37,000  Level Kansas City Center
Wed 06:38:01 PM 39.8606 -93.6358 71° East 437 503 37,000 -823 Level Kansas City Center
Wed 06:39:03 PM 39.9011 -93.4878 70° East 438 504 35,300 -1,742 Descending Kansas City Center
Wed 06:40:05 PM 39.9397 -93.3403 71° East 436 502 33,400 -1,113 Descending Kansas City Center
Wed 06:41:07 PM 39.9858 -93.1667 71° East 423 487 33,000 -194 Descending Kansas City Center
Wed 06:42:09 PM 40.0222 -93.0278 71° East 411 473 33,000 -387 Level Kansas City Center
Wed 06:43:11 PM 40.0583 -92.8881 71° East 411 473 32,200 -919 Descending Kansas City Center
Wed 06:44:13 PM 40.0975 -92.7364 71° East 408 470 31,100 -581 Descending Kansas City Center
Wed 06:45:15 PM 40.1331 -92.5956 72° East 421 484 31,000 -48 Descending Kansas City Center
Wed 06:46:17 PM 40.1683 -92.4283 75° East 429 494 31,000  Level Kansas City Center
Wed 06:47:19 PM 40.1967 -92.2833 76° East 432 497 31,000  Level Kansas City Center
Wed 06:48:21 PM 40.2258 -92.1350 76° East 429 494 31,000  Level Kansas City Center
Wed 06:49:23 PM 40.2550 -91.9861 76° East 427 491 31,000  Level Kansas City Center
Wed 06:50:25 PM 40.2894 -91.8072 76° East 426 490 31,000  Level Kansas City Center
Wed 06:51:27 PM 40.3186 -91.6589 75° East 425 489 31,000 -194 Level Kansas City Center
Wed 06:52:29 PM 40.3458 -91.5100 76° East 423 487 30,600 -677 Descending Kansas City Center
Wed 06:53:31 PM 40.3806 -91.3614 73° East 427 491 29,600 -774 Descending Kansas City Center
Wed 06:54:33 PM 40.4300 -91.2125 66° East 410 472 29,000 -290 Descending Kansas City Center
Wed 06:55:35 PM 40.4697 -91.0844 68° East 386 444 29,000  Level Kansas City Center
Wed 06:56:05 PM 40.4936 -91.0064 68° East 386 444 29,000  Level Chicago Center
Wed 06:57:07 PM 40.5364 -90.8758 67° East 389 448 29,000  Level Chicago Center
Wed 06:58:09 PM 40.5822 -90.7506 64° Northeast 383 441 29,000  Level Chicago Center
Wed 06:59:11 PM 40.6308 -90.6217 64° Northeast 390 449 29,000  Level Chicago Center
Wed 07:00:13 PM 40.6767 -90.4928 65° Northeast 390 449 29,000  Level Chicago Center
Wed 07:01:15 PM 40.7244 -90.3608 64° Northeast 396 456 29,000  Level Chicago Center
Wed 07:02:17 PM 40.7800 -90.2106 64° Northeast 400 460 29,000  Level Chicago Center
Wed 07:03:19 PM 40.8281 -90.0769 65° Northeast 404 465 29,000  Level Chicago Center
Wed 07:04:21 PM 40.8753 -89.9436 65° Northeast 402 463 29,000 -1,200 Level Chicago Center
Wed 07:05:24 PM 40.9228 -89.8072 65° Northeast 406 467 26,500 -2,688 Descending Chicago Center
Wed 07:06:26 PM 40.9831 -89.6403 64° Northeast 419 482 23,400 -2,613 Descending Chicago Center
Wed 07:07:28 PM 41.0281 -89.5144 65° Northeast 410 472 21,100 -2,274 Descending Chicago Center
Wed 07:08:30 PM 41.0747 -89.3817 65° Northeast 401 461 18,700 -2,081 Descending Chicago Center
Wed 07:09:32 PM 41.1200 -89.2531 65° Northeast 390 449 16,800 -1,935 Descending Chicago Center
Wed 07:10:34 PM 41.1639 -89.1253 65° Northeast 369 425 14,700 -1,935 Descending Chicago Center
Wed 07:11:36 PM 41.2047 -89.0081 65° Northeast 355 409 12,800 -2,032 Descending Chicago Center
Wed 07:12:38 PM 41.2522 -88.8686 66° East 348 400 10,500 -1,597 Descending Chicago Center
Wed 07:13:40 PM 41.2889 -88.7589 66° East 331 381 9,500 -1,210 Descending Chicago Center
Wed 07:14:42 PM 41.3242 -88.6569 65° Northeast 310 357 8,000 -1,452 Descending Chicago Center
Wed 07:15:44 PM 41.3581 -88.5558 66° East 303 349 6,500 -1,016 Descending Chicago Center
Wed 07:16:46 PM 41.3997 -88.4650 59° Northeast 291 335 5,900 -290 Descending Chicago Center
Wed 07:17:48 PM 41.4497 -88.3828 51° Northeast 286 329 5,900  Level Chicago Center
Wed 07:18:50 PM 41.4994 -88.3000 51° Northeast 286 329 5,900 -48 Level Chicago Center
Wed 07:19:52 PM 41.5517 -88.1928 57° Northeast 286 329 5,800 -581 Descending Chicago Center
Wed 07:20:54 PM 41.5939 -88.1022 58° Northeast 285 328 4,700 -919 Descending Chicago Center
Wed 07:21:56 PM 41.6347 -88.0139 58° Northeast 281 323 3,900 -390 Descending Chicago Center
Wed 07:22:57 PM 41.6692 -87.9372 59° Northeast 257 296 3,900  Level Chicago Center
Wed 07:23:59 PM 41.7025 -87.8656 58° Northeast 238 274 3,900  Level Chicago Center
Wed 07:25:01 PM 41.7289 -87.8036 60° Northeast 212 244 3,900  Level Chicago Center
Wed 07:26:03 PM 41.7561 -87.7431 59° Northeast 196 226 3,900  Level Chicago Center
Wed 07:27:05 PM 41.7581 -87.6719 88° East 194 223 3,900  Level Chicago Center
Wed 07:28:07 PM 41.7611 -87.5864 87° East 192 221 3,900 -194 Level Chicago Center
Wed 07:29:09 PM 41.7597 -87.5161 91° East 190 219 3,500 -484 Descending Chicago Center
Wed 07:30:11 PM 41.8053 -87.4933 20° North 189 217 2,900 -290 Descending Chicago Center
Wed 07:31:13 PM 41.8489 -87.5108 343° North 179 206 2,900 -48 Level Chicago Center
Wed 07:32:15 PM 41.8494 -87.5697 271° West 172 198 2,800 -242 Descending Chicago Center
Wed 07:33:17 PM 41.8464 -87.6303 266° West 165 190 2,400 -581 Descending Chicago Center
Wed 07:34:19 PM 41.8231 -87.6881 242° Southwest 155 178 1,600 -624 Descending Chicago Center
Wed 07:35:22 PM 41.8003 -87.7294 234° Southwest 143 165 1,100 -476 Descending Chicago Center

Login

Don't have an account? Register now (free) for customized features, flight alerts, and more!